User: anonymous   Login
Location: Unspecified
(0.0000°N, 0.0000°E)
Time: 00:17:33
(UTC+00:00)
Language:

Explorer 7 - Orbit

View from above orbital plane
View from above orbital plane
View from above satellite
View from above satellite

Ground track
Ground track

The orbit data is extracted from the following two-line orbital elements,

1    22U 59009A   16344.91108926 +.00000440 +00000-0 +57297-4 0  9993
2    22 050.2852 008.7862 0142764 031.2227 329.7103 14.93859335278103
Epoch (UTC): 09 December 2016 21:51:58
Eccentricity: 0.0142764
inclination: 50.2852°
perigee height: 486 km
apogee height: 685 km
right ascension of ascending node: 8.7862°
argument of perigee: 31.2227°
revolutions per day: 14.93859335
mean anomaly at epoch: 329.7103°
orbit number at epoch: 27810

The dashed part of the orbit path shows where the satellite is in the earth's shadow,  

DLR